����,���ϕ���(m/s),���ϕ���,�ő�u�ԕ���(m/s),�ő啗��������,�C��(��),���x(%),10���Ԉړ��ώZ�J��(mm),1���Ԉړ��ώZ�J��(mm),���J��(mm),�݌v�J��(mm),����(���ώZ)(MJ/m2),����(���ώZ)(min),���n�C��(hPa),�C�ʋC��(hPa)
2022-06-27T00:00:00+09:00,3.7,��쐼,6,��쐼,25.2,87.3,0,0,0,0,20.3,341,1003.4,1016.8
2022-06-27T00:01:00+09:00,3.6,��쐼,5.5,��,25.2,87.4,0,0,0,0,0,0,1003.4,1016.8
2022-06-27T00:02:00+09:00,3.5,��쐼,5.5,��,25.2,87.4,0,0,0,0,0,0,1003.4,1016.8
2022-06-27T00:03:00+09:00,3.6,��쐼,5.4,��쐼,25.1,87.5,0,0,0,0,0,0,1003.4,1016.8
2022-06-27T00:04:00+09:00,3.5,��쐼,5.4,��쐼,25.1,87.7,0,0,0,0,0,0,1003.3,1016.7
2022-06-27T00:05:00+09:00,3.6,��쐼,5.4,��쐼,25.2,87.8,0,0,0,0,0,0,1003.3,1016.7
2022-06-27T00:06:00+09:00,3.5,��쐼,5.2,��쐼,25.1,87.8,0,0,0,0,0,0,1003.3,1016.7
2022-06-27T00:07:00+09:00,3.5,��쐼,5.2,��쐼,25.1,87.9,0,0,0,0,0,0,1003.3,1016.7
2022-06-27T00:08:00+09:00,3.4,��쐼,5.2,��쐼,25.1,88.1,0,0,0,0,0,0,1003.3,1016.7
2022-06-27T00:09:00+09:00,3.4,��쐼,5.2,��쐼,25.1,88.1,0,0,0,0,0,0,1003.3,1016.7
2022-06-27T00:10:00+09:00,3.3,��쐼,4.8,��쐼,25.1,88.1,0,0,0,0,0,0,1003.3,1016.7
2022-06-27T00:11:00+09:00,3.3,��쐼,4.8,��쐼,25.1,88.1,0,0,0,0,0,0,1003.3,1016.7
2022-06-27T00:12:00+09:00,3.2,��쐼,4.8,��쐼,25.1,88.2,0,0,0,0,0,0,1003.3,1016.7
2022-06-27T00:13:00+09:00,3.2,��쐼,4.8,��쐼,25.1,88.3,0,0,0,0,0,0,1003.3,1016.7
2022-06-27T00:14:00+09:00,3.1,��쐼,4.8,��쐼,25,88.4,0,0,0,0,0,0,1003.4,1016.8
2022-06-27T00:15:00+09:00,3,��쐼,4.7,��,25,88.6,0,0,0,0,0,0,1003.4,1016.8
2022-06-27T00:16:00+09:00,3,��쐼,4.7,��,25.1,88.7,0,0,0,0,0,0,1003.4,1016.8
2022-06-27T00:17:00+09:00,3,��,4.7,��,25.1,88.6,0,0,0,0,0,0,1003.4,1016.8
2022-06-27T00:18:00+09:00,3,��쐼,4.7,��,25.1,88.7,0,0,0,0,0,0,1003.4,1016.8
2022-06-27T00:19:00+09:00,3,��쐼,4.7,��,25.1,88.6,0,0,0,0,0,0,1003.4,1016.8
2022-06-27T00:20:00+09:00,3,��쐼,4.7,��,25,88.5,0,0,0,0,0,0,1003.4,1016.8
2022-06-27T00:21:00+09:00,3,��쐼,4.7,��,25,88.6,0,0,0,0,0,0,1003.4,1016.8
2022-06-27T00:22:00+09:00,3.1,��쐼,5.2,��쐼,25,88.7,0,0,0,0,0,0,1003.4,1016.8
2022-06-27T00:23:00+09:00,3.1,��쐼,5.3,��쐼,25,88.7,0,0,0,0,0,0,1003.4,1016.8
2022-06-27T00:24:00+09:00,3.2,��쐼,5.3,��쐼,25,88.7,0,0,0,0,0,0,1003.4,1016.8
2022-06-27T00:25:00+09:00,3.3,��쐼,5.3,��쐼,25,88.8,0,0,0,0,0,0,1003.4,1016.8
2022-06-27T00:26:00+09:00,3.4,��쐼,5.3,��쐼,25,88.8,0,0,0,0,0,0,1003.4,1016.8
2022-06-27T00:27:00+09:00,3.4,��쐼,5.3,��쐼,25,88.8,0,0,0,0,0,0,1003.4,1016.8
2022-06-27T00:28:00+09:00,3.4,��쐼,5.3,��쐼,25,88.7,0,0,0,0,0,0,1003.4,1016.8
2022-06-27T00:29:00+09:00,3.4,��쐼,5.3,��쐼,25,88.9,0,0,0,0,0,0,1003.4,1016.8
2022-06-27T00:30:00+09:00,3.4,��쐼,5.3,��쐼,25,88.9,0,0,0,0,0,0,1003.3,1016.7
2022-06-27T00:31:00+09:00,3.4,��쐼,5.3,��쐼,25,88.8,0,0,0,0,0,0,1003.4,1016.8
2022-06-27T00:32:00+09:00,3.3,��쐼,5.3,��쐼,25,88.9,0,0,0,0,0,0,1003.4,1016.8
2022-06-27T00:33:00+09:00,3.3,��쐼,5.3,��,25,88.8,0,0,0,0,0,0,1003.4,1016.8
2022-06-27T00:34:00+09:00,3.3,��쐼,5.3,��,25,88.7,0,0,0,0,0,0,1003.4,1016.8
2022-06-27T00:35:00+09:00,3.2,��쐼,4.5,��쐼,25,88.8,0,0,0,0,0,0,1003.5,1016.9
2022-06-27T00:36:00+09:00,3.1,��쐼,4.4,��,25,88.9,0,0,0,0,0,0,1003.5,1016.9
2022-06-27T00:37:00+09:00,3,��쐼,4.4,��,25,89,0,0,0,0,0,0,1003.5,1016.9
2022-06-27T00:38:00+09:00,2.8,��쐼,4.4,��,25,88.8,0,0,0,0,0,0,1003.5,1016.9
2022-06-27T00:39:00+09:00,2.7,��쐼,4.4,��,25,88.9,0,0,0,0,0,0,1003.6,1017
2022-06-27T00:40:00+09:00,2.6,��쐼,4.4,��,25.1,88.9,0,0,0,0,0,0,1003.6,1017
2022-06-27T00:41:00+09:00,2.5,��쐼,4.4,��,25.1,89,0,0,0,0,0,0,1003.6,1017
2022-06-27T00:42:00+09:00,2.5,��쐼,4.4,��,25.1,88.7,0,0,0,0,0,0,1003.6,1017
2022-06-27T00:43:00+09:00,2.4,��쐼,4,��,25,88.7,0,0,0,0,0,0,1003.6,1017
2022-06-27T00:44:00+09:00,2.4,��쐼,4,��,25,88.8,0,0,0,0,0,0,1003.5,1016.9
2022-06-27T00:45:00+09:00,2.3,��쐼,3.7,��쐼,25,89,0,0,0,0,0,0,1003.5,1016.9
2022-06-27T00:46:00+09:00,2.3,��쐼,3.8,��,25,89.1,0,0,0,0,0,0,1003.5,1016.9
2022-06-27T00:47:00+09:00,2.3,��쐼,3.8,��,25,89.1,0,0,0,0,0,0,1003.5,1016.9
2022-06-27T00:48:00+09:00,2.4,��,3.8,��,25,89.2,0,0,0,0,0,0,1003.5,1016.9
2022-06-27T00:49:00+09:00,2.4,��,3.8,��,25,89.3,0,0,0,0,0,0,1003.5,1016.9
2022-06-27T00:50:00+09:00,2.5,��,3.8,��,25,89.3,0,0,0,0,0,0,1003.5,1016.9
2022-06-27T00:51:00+09:00,2.6,��,4.1,��쐼,25,89.3,0,0,0,0,0,0,1003.5,1016.9
2022-06-27T00:52:00+09:00,2.5,��,4.1,��쐼,25,89.4,0,0,0,0,0,0,1003.5,1016.9
2022-06-27T00:53:00+09:00,2.5,��,4.1,��쐼,25,89.3,0,0,0,0,0,0,1003.5,1016.9
2022-06-27T00:54:00+09:00,2.4,��,4.1,��쐼,25,89.4,0,0,0,0,0,0,1003.5,1016.9
2022-06-27T00:55:00+09:00,2.4,��,4.1,��쐼,25,89.4,0,0,0,0,0,0,1003.5,1016.9
2022-06-27T00:56:00+09:00,2.3,��,4.1,��쐼,25,89.5,0,0,0,0,0,0,1003.6,1017
2022-06-27T00:57:00+09:00,2.2,��,4.1,��쐼,25,89.5,0,0,0,0,0,0,1003.6,1017
2022-06-27T00:58:00+09:00,2.2,��,4.1,��쐼,25,89.5,0,0,0,0,0,0,1003.6,1017
2022-06-27T00:59:00+09:00,2.2,��,4.1,��쐼,25,89.5,0,0,0,0,0,0,1003.6,1017
2022-06-27T01:00:00+09:00,2.1,��,4.1,��쐼,25.1,89.9,0,0,0,0,0,0,1003.6,1017
2022-06-27T01:01:00+09:00,2,��,3.5,��쐼,25.1,89.5,0,0,0,0,0,0,1003.6,1017
2022-06-27T01:02:00+09:00,2,��,3.5,��쐼,25.1,89.1,0,0,0,0,0,0,1003.6,1017
2022-06-27T01:03:00+09:00,1.9,��쐼,3.5,��쐼,25.1,89,0,0,0,0,0,0,1003.7,1017.1
2022-06-27T01:04:00+09:00,1.9,��쐼,3.5,��쐼,25.1,89.2,0,0,0,0,0,0,1003.7,1017.1
2022-06-27T01:05:00+09:00,1.8,��쐼,3.5,��쐼,25.1,89.1,0,0,0,0,0,0,1003.7,1017.1
2022-06-27T01:06:00+09:00,1.8,��쐼,3.4,��,25.1,89,0,0,0,0,0,0,1003.7,1017.1
2022-06-27T01:07:00+09:00,1.8,��쐼,3.4,��,25,89.1,0,0,0,0,0,0,1003.7,1017.1
2022-06-27T01:08:00+09:00,1.8,��쐼,3.2,��,25,89.1,0,0,0,0,0,0,1003.7,1017.1
2022-06-27T01:09:00+09:00,1.9,��쐼,3.2,��,25,89.1,0,0,0,0,0,0,1003.7,1017.1
2022-06-27T01:10:00+09:00,1.9,��쐼,3.2,��,25,89.4,0,0,0,0,0,0,1003.7,1017.1
2022-06-27T01:11:00+09:00,1.9,��쐼,3.2,��,25.1,89.5,0,0,0,0,0,0,1003.7,1017.1
2022-06-27T01:12:00+09:00,2,��쐼,3.6,��쐼,25,89.3,0,0,0,0,0,0,1003.7,1017.1
2022-06-27T01:13:00+09:00,2.2,��쐼,3.6,��쐼,25,89.2,0,0,0,0,0,0,1003.7,1017.1
2022-06-27T01:14:00+09:00,2.3,��쐼,3.8,��쐼,25,89.3,0,0,0,0,0,0,1003.7,1017.1
2022-06-27T01:15:00+09:00,2.4,��쐼,3.8,��쐼,25,89.4,0,0,0,0,0,0,1003.7,1017.1
2022-06-27T01:16:00+09:00,2.4,��쐼,3.8,��쐼,25,89.6,0,0,0,0,0,0,1003.7,1017.1
2022-06-27T01:17:00+09:00,2.5,��쐼,4.1,��,25,89.8,0,0,0,0,0,0,1003.7,1017.1
2022-06-27T01:18:00+09:00,2.5,��쐼,4.1,��,25,89.8,0,0,0,0,0,0,1003.7,1017.1
2022-06-27T01:19:00+09:00,2.5,��쐼,4.1,��,25,89.8,0,0,0,0,0,0,1003.7,1017.1
2022-06-27T01:20:00+09:00,2.5,��쐼,4.1,��,25,89.9,0,0,0,0,0,0,1003.7,1017.1
2022-06-27T01:21:00+09:00,2.4,��쐼,4.1,��,25,90,0,0,0,0,0,0,1003.7,1017.1
2022-06-27T01:22:00+09:00,2.4,��쐼,4.1,��,25,89.7,0,0,0,0,0,0,1003.7,1017.1
2022-06-27T01:23:00+09:00,2.3,��쐼,4.1,��,25,89.8,0,0,0,0,0,0,1003.7,1017.1
2022-06-27T01:24:00+09:00,2.3,��쐼,4.1,��,25,89.8,0,0,0,0,0,0,1003.7,1017.1
2022-06-27T01:25:00+09:00,2.3,��쐼,4.1,��,25,90,0,0,0,0,0,0,1003.7,1017.1
2022-06-27T01:26:00+09:00,2.3,��쐼,4.1,��,24.9,89.9,0,0,0,0,0,0,1003.7,1017.1
2022-06-27T01:27:00+09:00,2.2,��쐼,3.4,��,25.1,90.1,0,0,0,0,0,0,1003.7,1017.1
2022-06-27T01:28:00+09:00,2.2,��쐼,3.4,��,25,90.1,0,0,0,0,0,0,1003.7,1017.1
2022-06-27T01:29:00+09:00,2.2,��쐼,3.5,��쐼,25,89.8,0,0,0,0,0,0,1003.7,1017.1
2022-06-27T01:30:00+09:00,2.3,��쐼,3.8,��쐼,24.9,89.7,0,0,0,0,0,0,1003.7,1017.1
2022-06-27T01:31:00+09:00,2.3,��쐼,3.8,��쐼,25,89.9,0,0,0,0,0,0,1003.7,1017.1
2022-06-27T01:32:00+09:00,2.3,��쐼,3.8,��쐼,25,90.1,0,0,0,0,0,0,1003.7,1017.1
2022-06-27T01:33:00+09:00,2.3,��쐼,3.8,��쐼,24.9,90,0,0,0,0,0,0,1003.7,1017.1
2022-06-27T01:34:00+09:00,2.3,��쐼,3.8,��쐼,24.9,90.1,0,0,0,0,0,0,1003.7,1017.1
2022-06-27T01:35:00+09:00,2.4,��쐼,3.8,��쐼,24.9,90.2,0,0,0,0,0,0,1003.7,1017.1
2022-06-27T01:36:00+09:00,2.4,��쐼,3.8,��쐼,25,90.4,0,0,0,0,0,0,1003.8,1017.2
2022-06-27T01:37:00+09:00,2.4,��쐼,3.8,��쐼,25,90.6,0,0,0,0,0,0,1003.8,1017.2
2022-06-27T01:38:00+09:00,2.3,��쐼,3.8,��쐼,25,90.5,0,0,0,0,0,0,1003.8,1017.2
2022-06-27T01:39:00+09:00,2.2,��쐼,3.8,��쐼,25,90.2,0,0,0,0,0,0,1003.8,1017.2
2022-06-27T01:40:00+09:00,2.1,��쐼,3.6,��,25,90.3,0,0,0,0,0,0,1003.8,1017.2
2022-06-27T01:41:00+09:00,2.1,��쐼,3.6,��,25,90.3,0,0,0,0,0,0,1003.8,1017.2
2022-06-27T01:42:00+09:00,2.1,��쐼,3.6,��,25,90.2,0,0,0,0,0,0,1003.8,1017.2
2022-06-27T01:43:00+09:00,2.1,��쐼,3.6,��,24.9,90.1,0,0,0,0,0,0,1003.8,1017.2
2022-06-27T01:44:00+09:00,2,��쐼,3.6,��,25,90.1,0,0,0,0,0,0,1003.8,1017.2
2022-06-27T01:45:00+09:00,2,��쐼,3.4,��쐼,25,90.2,0,0,0,0,0,0,1003.8,1017.2
2022-06-27T01:46:00+09:00,2.1,��쐼,3.7,��쐼,25,90.2,0,0,0,0,0,0,1003.8,1017.2
2022-06-27T01:47:00+09:00,2.2,��쐼,3.7,��쐼,25,90.2,0,0,0,0,0,0,1003.8,1017.2
2022-06-27T01:48:00+09:00,2.3,��쐼,3.7,��쐼,25,90.2,0,0,0,0,0,0,1003.8,1017.2
2022-06-27T01:49:00+09:00,2.4,��쐼,3.7,��쐼,25,90.2,0,0,0,0,0,0,1003.8,1017.2
2022-06-27T01:50:00+09:00,2.5,��쐼,3.7,��쐼,24.9,90.1,0,0,0,0,0,0,1003.8,1017.2
2022-06-27T01:51:00+09:00,2.6,��쐼,3.8,��,25,90.1,0,0,0,0,0,0,1003.8,1017.2
2022-06-27T01:52:00+09:00,2.8,��쐼,3.9,��쐼,25,90.2,0,0,0,0,0,0,1003.8,1017.2
2022-06-27T01:53:00+09:00,2.8,��쐼,3.9,��쐼,25,90.1,0,0,0,0,0,0,1003.8,1017.2
2022-06-27T01:54:00+09:00,2.9,��쐼,3.9,��쐼,25,90.2,0,0,0,0,0,0,1003.8,1017.2
2022-06-27T01:55:00+09:00,2.8,��쐼,3.9,��쐼,25,90.1,0,0,0,0,0,0,1003.8,1017.2
2022-06-27T01:56:00+09:00,2.9,��쐼,3.9,��쐼,25,90,0,0,0,0,0,0,1003.8,1017.2
2022-06-27T01:57:00+09:00,2.9,��쐼,3.9,��쐼,25,90.1,0,0,0,0,0,0,1003.8,1017.2
2022-06-27T01:58:00+09:00,2.8,��쐼,3.9,��쐼,25,90.3,0,0,0,0,0,0,1003.8,1017.2
2022-06-27T01:59:00+09:00,2.7,��쐼,3.9,��쐼,25,90.1,0,0,0,0,0,0,1003.9,1017.3
2022-06-27T02:00:00+09:00,2.7,��쐼,3.9,��쐼,25,90,0,0,0,0,0,0,1003.9,1017.3
2022-06-27T02:01:00+09:00,2.6,��쐼,3.9,��쐼,25,90,0,0,0,0,0,0,1003.9,1017.3
2022-06-27T02:02:00+09:00,2.5,��쐼,3.8,��쐼,25,90,0,0,0,0,0,0,1003.9,1017.3
2022-06-27T02:03:00+09:00,2.3,��쐼,3.8,��쐼,25.1,90.1,0,0,0,0,0,0,1003.9,1017.3
2022-06-27T02:04:00+09:00,2.2,��쐼,3.8,��쐼,25,89.9,0,0,0,0,0,0,1003.9,1017.3
2022-06-27T02:05:00+09:00,2.2,��쐼,3.8,��쐼,25,89.9,0,0,0,0,0,0,1003.9,1017.3
2022-06-27T02:06:00+09:00,2,��쐼,3.3,��쐼,25.1,89.9,0,0,0,0,0,0,1003.9,1017.3
2022-06-27T02:07:00+09:00,2,��쐼,3.5,��쐼,25.1,89.9,0,0,0,0,0,0,1003.9,1017.3
2022-06-27T02:08:00+09:00,2,��쐼,3.5,��쐼,25.1,89.7,0,0,0,0,0,0,1003.9,1017.3
2022-06-27T02:09:00+09:00,2.1,��쐼,3.6,��쐼,25.1,89.8,0,0,0,0,0,0,1003.8,1017.2
2022-06-27T02:10:00+09:00,2.1,��쐼,3.6,��쐼,25.1,89.7,0,0,0,0,0,0,1003.8,1017.2
2022-06-27T02:11:00+09:00,2.1,��쐼,3.6,��쐼,25.1,89.7,0,0,0,0,0,0,1003.8,1017.2
2022-06-27T02:12:00+09:00,2.3,��쐼,3.8,��,25.1,89.6,0,0,0,0,0,0,1003.7,1017.1
2022-06-27T02:13:00+09:00,2.5,��쐼,4.1,��,25,89.6,0,0,0,0,0,0,1003.7,1017.1
2022-06-27T02:14:00+09:00,2.6,��쐼,4.3,��,25,89.7,0,0,0,0,0,0,1003.7,1017.1
2022-06-27T02:15:00+09:00,2.8,��쐼,4.3,��,25,89.8,0,0,0,0,0,0,1003.8,1017.2
2022-06-27T02:16:00+09:00,2.9,��쐼,4.3,��,25,89.9,0,0,0,0,0,0,1003.8,1017.2
2022-06-27T02:17:00+09:00,3.1,��쐼,4.6,��쐼,25,90,0,0,0,0,0,0,1003.8,1017.2
2022-06-27T02:18:00+09:00,3.2,��쐼,4.6,��쐼,25,89.9,0,0,0,0,0,0,1003.8,1017.2
2022-06-27T02:19:00+09:00,3.3,��쐼,4.6,��쐼,25,90,0,0,0,0,0,0,1003.8,1017.2
2022-06-27T02:20:00+09:00,3.3,��쐼,4.6,��쐼,25,90.1,0,0,0,0,0,0,1003.8,1017.2
2022-06-27T02:21:00+09:00,3.3,��쐼,4.6,��쐼,25,90.2,0,0,0,0,0,0,1003.8,1017.2
2022-06-27T02:22:00+09:00,3.4,��쐼,4.6,��쐼,25,90.2,0,0,0,0,0,0,1003.9,1017.3
2022-06-27T02:23:00+09:00,3.4,��쐼,4.6,��쐼,25,90.3,0,0,0,0,0,0,1003.9,1017.3
2022-06-27T02:24:00+09:00,3.4,��쐼,4.6,��쐼,24.9,90.3,0,0,0,0,0,0,1003.9,1017.3
2022-06-27T02:25:00+09:00,3.4,��쐼,4.6,��쐼,24.9,90.4,0,0,0,0,0,0,1003.9,1017.3
2022-06-27T02:26:00+09:00,3.4,��쐼,4.6,��쐼,24.9,90.4,0,0,0,0,0,0,1003.9,1017.3
2022-06-27T02:27:00+09:00,3.2,��쐼,4.4,��쐼,24.9,90.7,0,0,0,0,0,0,1003.9,1017.3
2022-06-27T02:28:00+09:00,3.1,��쐼,4.4,��쐼,24.9,90.9,0,0,0,0,0,0,1003.9,1017.3
2022-06-27T02:29:00+09:00,3,��쐼,4.4,��쐼,24.9,91,0,0,0,0,0,0,1003.9,1017.3
2022-06-27T02:30:00+09:00,3,��쐼,4.4,��쐼,24.8,90.9,0,0,0,0,0,0,1003.9,1017.3
2022-06-27T02:31:00+09:00,3,��쐼,4.4,��쐼,24.9,91,0,0,0,0,0,0,1003.9,1017.3
2022-06-27T02:32:00+09:00,2.9,��쐼,4.4,��쐼,24.9,91.1,0,0,0,0,0,0,1003.9,1017.3
2022-06-27T02:33:00+09:00,2.9,��쐼,4.4,��쐼,24.9,91.2,0,0,0,0,0,0,1003.9,1017.3
2022-06-27T02:34:00+09:00,2.9,��쐼,4.4,��쐼,24.9,91.2,0,0,0,0,0,0,1003.8,1017.2
2022-06-27T02:35:00+09:00,2.9,��쐼,4.4,��쐼,24.9,91.1,0,0,0,0,0,0,1003.8,1017.2
2022-06-27T02:36:00+09:00,2.9,��쐼,4.8,��쐼,24.9,91.1,0,0,0,0,0,0,1003.8,1017.2
2022-06-27T02:37:00+09:00,3,��쐼,4.8,��쐼,24.9,91.2,0,0,0,0,0,0,1003.8,1017.2
2022-06-27T02:38:00+09:00,3.2,��쐼,4.8,��쐼,24.9,91.1,0,0,0,0,0,0,1003.8,1017.2
2022-06-27T02:39:00+09:00,3.3,��쐼,4.8,��쐼,24.9,91.1,0,0,0,0,0,0,1003.8,1017.2
2022-06-27T02:40:00+09:00,3.4,��쐼,4.8,��쐼,24.9,91.1,0,0,0,0,0,0,1003.8,1017.2
2022-06-27T02:41:00+09:00,3.4,��쐼,4.8,��쐼,24.9,91.1,0,0,0,0,0,0,1003.8,1017.2
2022-06-27T02:42:00+09:00,3.4,��쐼,4.8,��쐼,24.9,91.1,0,0,0,0,0,0,1003.8,1017.2
2022-06-27T02:43:00+09:00,3.3,��쐼,4.8,��쐼,24.9,91.1,0,0,0,0,0,0,1003.8,1017.2
2022-06-27T02:44:00+09:00,3.2,��쐼,4.8,��쐼,24.9,91.2,0,0,0,0,0,0,1003.8,1017.2
2022-06-27T02:45:00+09:00,3.1,��쐼,4.8,��쐼,24.9,91.2,0,0,0,0,0,0,1003.8,1017.2
2022-06-27T02:46:00+09:00,3.1,��쐼,4.6,��,24.8,91.1,0,0,0,0,0,0,1003.8,1017.2
2022-06-27T02:47:00+09:00,3,��쐼,4.6,��,24.8,91.2,0,0,0,0,0,0,1003.8,1017.2
2022-06-27T02:48:00+09:00,3,��쐼,4.6,��,24.8,91.3,0,0,0,0,0,0,1003.8,1017.2
2022-06-27T02:49:00+09:00,2.9,��쐼,4.4,��쐼,24.8,91.5,0,0,0,0,0,0,1003.8,1017.2
2022-06-27T02:50:00+09:00,2.8,��,4.3,��,24.8,91.6,0,0,0,0,0,0,1003.8,1017.2
2022-06-27T02:51:00+09:00,2.8,��,4.1,��,24.8,91.5,0,0,0,0,0,0,1003.8,1017.2
2022-06-27T02:52:00+09:00,2.7,��,4.1,��,24.8,91.7,0,0,0,0,0,0,1003.8,1017.2
2022-06-27T02:53:00+09:00,2.7,��,4.1,��,24.9,91.8,0,0,0,0,0,0,1003.8,1017.2
2022-06-27T02:54:00+09:00,2.8,��,4.5,��,24.8,91.7,0,0,0,0,0,0,1003.8,1017.2
2022-06-27T02:55:00+09:00,2.8,��,4.6,��,24.9,91.7,0,0,0,0,0,0,1003.8,1017.2
2022-06-27T02:56:00+09:00,2.9,��,4.6,��,24.8,91.6,0,0,0,0,0,0,1003.8,1017.2
2022-06-27T02:57:00+09:00,2.8,��,4.6,��,24.8,91.7,0,0,0,0,0,0,1003.8,1017.2
2022-06-27T02:58:00+09:00,2.8,��,4.6,��,24.8,91.6,0,0,0,0,0,0,1003.8,1017.2
2022-06-27T02:59:00+09:00,2.9,��,4.6,��,24.8,91.6,0,0,0,0,0,0,1003.7,1017.1
2022-06-27T03:00:00+09:00,2.8,��,4.6,��,24.8,91.7,0,0,0,0,0,0,1003.7,1017.1
2022-06-27T03:01:00+09:00,2.9,��,4.6,��,24.8,91.8,0,0,0,0,0,0,1003.7,1017.1
2022-06-27T03:02:00+09:00,3,��,5.1,��,24.8,91.9,0,0,0,0,0,0,1003.7,1017.1
2022-06-27T03:03:00+09:00,3.1,��,5.1,��,24.8,91.9,0,0,0,0,0,0,1003.7,1017.1
2022-06-27T03:04:00+09:00,3.1,��,5.1,��,24.8,92.1,0,0,0,0,0,0,1003.6,1017
2022-06-27T03:05:00+09:00,3.1,��쐼,5.1,��,24.8,92,0,0,0,0,0,0,1003.6,1017
2022-06-27T03:06:00+09:00,3.1,��쐼,5.1,��,24.8,91.9,0,0,0,0,0,0,1003.6,1017
2022-06-27T03:07:00+09:00,3.1,��쐼,5.1,��,24.8,91.9,0,0,0,0,0,0,1003.6,1017
2022-06-27T03:08:00+09:00,3,��쐼,5.1,��,24.8,92,0,0,0,0,0,0,1003.5,1016.9
2022-06-27T03:09:00+09:00,2.9,��쐼,5.1,��,24.8,91.9,0,0,0,0,0,0,1003.5,1016.9
2022-06-27T03:10:00+09:00,2.9,��쐼,5.1,��,24.8,91.9,0,0,0,0,0,0,1003.5,1016.9
2022-06-27T03:11:00+09:00,2.7,��쐼,5.1,��,24.8,92,0,0,0,0,0,0,1003.5,1016.9
2022-06-27T03:12:00+09:00,2.7,��쐼,4.7,��쐼,24.8,92,0,0,0,0,0,0,1003.6,1017
2022-06-27T03:13:00+09:00,2.7,��쐼,4.7,��쐼,24.8,92,0,0,0,0,0,0,1003.6,1017
2022-06-27T03:14:00+09:00,2.7,��쐼,4.7,��쐼,24.8,92.1,0,0,0,0,0,0,1003.6,1017
2022-06-27T03:15:00+09:00,2.6,��쐼,4.5,��쐼,24.8,92.1,0,0,0,0,0,0,1003.6,1017
2022-06-27T03:16:00+09:00,2.7,��쐼,4.5,��쐼,24.8,92.1,0,0,0,0,0,0,1003.5,1016.9
2022-06-27T03:17:00+09:00,2.6,��쐼,4.5,��쐼,24.8,92,0,0,0,0,0,0,1003.5,1016.9
2022-06-27T03:18:00+09:00,2.8,��쐼,4.5,��쐼,24.8,92,0,0,0,0,0,0,1003.5,1016.9
2022-06-27T03:19:00+09:00,2.8,��쐼,4.5,��쐼,24.8,92.1,0,0,0,0,0,0,1003.5,1016.9
2022-06-27T03:20:00+09:00,2.7,��쐼,4.5,��쐼,24.8,92,0,0,0,0,0,0,1003.5,1016.9
2022-06-27T03:21:00+09:00,2.8,��쐼,4.5,��쐼,24.8,92.1,0,0,0,0,0,0,1003.5,1016.9
2022-06-27T03:22:00+09:00,2.7,��쐼,4.5,��쐼,24.8,92.2,0,0,0,0,0,0,1003.5,1016.9
2022-06-27T03:23:00+09:00,2.5,��쐼,4.2,��,24.9,92.3,0,0,0,0,0,0,1003.5,1016.9
2022-06-27T03:24:00+09:00,2.4,��쐼,4,��쐼,24.8,92.2,0,0,0,0,0,0,1003.5,1016.9
2022-06-27T03:25:00+09:00,2.4,��쐼,4,��쐼,24.8,92.1,0,0,0,0,0,0,1003.5,1016.9
2022-06-27T03:26:00+09:00,2.3,��쐼,4,��쐼,24.8,92.1,0,0,0,0,0,0,1003.5,1016.9
2022-06-27T03:27:00+09:00,2.3,��쐼,4,��쐼,24.8,92.2,0,0,0,0,0,0,1003.5,1016.9
2022-06-27T03:28:00+09:00,2.2,��쐼,3.4,��쐼,24.8,92.2,0,0,0,0,0,0,1003.5,1016.9
2022-06-27T03:29:00+09:00,2.1,��쐼,3.4,��쐼,24.8,92.2,0,0,0,0,0,0,1003.5,1016.9
2022-06-27T03:30:00+09:00,2,��쐼,3.4,��쐼,24.8,92.2,0,0,0,0,0,0,1003.4,1016.8
2022-06-27T03:31:00+09:00,1.9,��쐼,3.4,��쐼,24.8,92.3,0,0,0,0,0,0,1003.4,1016.8
2022-06-27T03:32:00+09:00,1.8,��쐼,3.3,��,24.8,92.3,0,0,0,0,0,0,1003.5,1016.9
2022-06-27T03:33:00+09:00,1.8,��쐼,3.3,��,24.8,92.3,0,0,0,0,0,0,1003.5,1016.9
2022-06-27T03:34:00+09:00,1.8,��쐼,3.3,��,24.9,92.3,0,0,0,0,0,0,1003.5,1016.9
2022-06-27T03:35:00+09:00,1.8,��쐼,2.8,��쐼,24.9,92.3,0,0,0,0,0,0,1003.5,1016.9
2022-06-27T03:36:00+09:00,1.7,��쐼,2.8,��쐼,24.9,92.2,0,0,0,0,0,0,1003.5,1016.9
2022-06-27T03:37:00+09:00,1.6,��,2.8,��쐼,24.9,92.2,0,0,0,0,0,0,1003.5,1016.9
2022-06-27T03:38:00+09:00,1.6,��,2.8,��쐼,24.9,92.1,0,0,0,0,0,0,1003.5,1016.9
2022-06-27T03:39:00+09:00,1.6,��,2.8,��쐼,24.9,92,0,0,0,0,0,0,1003.5,1016.9
2022-06-27T03:40:00+09:00,1.6,��,2.8,��쐼,24.9,92,0,0,0,0,0,0,1003.5,1016.9
2022-06-27T03:41:00+09:00,1.5,��,2.8,��쐼,24.9,92.1,0,0,0,0,0,0,1003.4,1016.8
2022-06-27T03:42:00+09:00,1.5,��,2.7,��쐼,24.9,92,0,0,0,0,0,0,1003.5,1016.9
2022-06-27T03:43:00+09:00,1.5,��,2.7,��쐼,24.9,92.1,0,0,0,0,0,0,1003.5,1016.9
2022-06-27T03:44:00+09:00,1.5,��,2.7,��쐼,24.9,92,0,0,0,0,0,0,1003.5,1016.9
2022-06-27T03:45:00+09:00,1.5,��,2.7,��쐼,24.9,92,0,0,0,0,0,0,1003.5,1016.9
2022-06-27T03:46:00+09:00,1.5,��,2.7,��쐼,24.9,92,0,0,0,0,0,0,1003.5,1016.9
2022-06-27T03:47:00+09:00,1.4,��,2.7,��쐼,25,92.1,0,0,0,0,0,0,1003.5,1016.9
2022-06-27T03:48:00+09:00,1.3,��,2.7,��쐼,25,92.1,0,0,0,0,0,0,1003.5,1016.9
2022-06-27T03:49:00+09:00,1.3,��,2.7,��쐼,25,91.8,0,0,0,0,0,0,1003.5,1016.9
2022-06-27T03:50:00+09:00,1.4,��,2.7,��쐼,25,91.6,0,0,0,0,0,0,1003.4,1016.8
2022-06-27T03:51:00+09:00,1.3,��,2.7,��쐼,24.9,91.7,0,0,0,0,0,0,1003.4,1016.8
2022-06-27T03:52:00+09:00,1.3,��,2.7,��쐼,24.9,91.6,0,0,0,0,0,0,1003.4,1016.8
2022-06-27T03:53:00+09:00,1.3,��,2.6,��,24.9,91.7,0,0,0,0,0,0,1003.4,1016.8
2022-06-27T03:54:00+09:00,1.1,��,2.6,��,24.8,91.8,0,0,0,0,0,0,1003.4,1016.8
2022-06-27T03:55:00+09:00,1.1,��,2.6,��,24.8,92,0,0,0,0,0,0,1003.4,1016.8
2022-06-27T03:56:00+09:00,1,��,2.6,��,24.8,92.1,0,0,0,0,0,0,1003.4,1016.8
2022-06-27T03:57:00+09:00,1,��,2.6,��,24.8,92.3,0,0,0,0,0,0,1003.4,1016.8
2022-06-27T03:58:00+09:00,1,��,2.6,��,24.8,92.5,0,0,0,0,0,0,1003.4,1016.8
2022-06-27T03:59:00+09:00,1,��쓌,2.6,��,24.8,92.7,0,0,0,0,0,0,1003.4,1016.8
2022-06-27T04:00:00+09:00,1,��쓌,2.7,��,24.8,92.7,0,0,0,0,0,0,1003.4,1016.8
2022-06-27T04:01:00+09:00,1.1,��,3.3,��쓌,24.8,92.8,0,0,0,0,0,0,1003.4,1016.8
2022-06-27T04:02:00+09:00,1.2,��,3.3,��쓌,24.8,92.7,0,0,0,0,0,0,1003.4,1016.8
2022-06-27T04:03:00+09:00,1.2,��,3.3,��쓌,24.8,92.8,0,0,0,0,0,0,1003.4,1016.8
2022-06-27T04:04:00+09:00,1.3,��,3.3,��쓌,24.8,92.7,0,0,0,0,0,0,1003.5,1016.9
2022-06-27T04:05:00+09:00,1.4,��,3.3,��쓌,24.8,92.7,0,0,0,0,0,0,1003.5,1016.9
2022-06-27T04:06:00+09:00,1.4,��,3.3,��쓌,24.8,92.8,0,0,0,0,0,0,1003.5,1016.9
2022-06-27T04:07:00+09:00,1.5,��,3.3,��쓌,24.8,92.8,0,0,0,0,0,0,1003.5,1016.9
2022-06-27T04:08:00+09:00,1.5,��,3.3,��쓌,24.8,92.7,0,0,0,0,0,0,1003.5,1016.9
2022-06-27T04:09:00+09:00,1.7,��,3.3,��쓌,24.8,92.7,0,0,0,0,0,0,1003.5,1016.9
2022-06-27T04:10:00+09:00,1.7,��,3.3,��쓌,24.8,92.8,0,0,0,0,0,0,1003.4,1016.8
2022-06-27T04:11:00+09:00,1.6,��,3.1,��,24.8,92.8,0,0,0,0,0,0,1003.4,1016.8
2022-06-27T04:12:00+09:00,1.6,��,3.1,��,24.8,92.8,0,0,0,0,0,0,1003.4,1016.8
2022-06-27T04:13:00+09:00,1.6,��,3.1,��,24.8,92.9,0,0,0,0,0,0,1003.5,1016.9
2022-06-27T04:14:00+09:00,1.6,��,3.1,��,24.8,92.9,0,0,0,0,0,0,1003.4,1016.8
2022-06-27T04:15:00+09:00,1.6,��,3.1,��,24.8,93.1,0,0,0,0,0,0,1003.5,1016.9
2022-06-27T04:16:00+09:00,1.5,��,3.1,��,24.8,93,0,0,0,0,0,0,1003.5,1016.9
2022-06-27T04:17:00+09:00,1.5,��,3.1,��,24.8,93.1,0,0,0,0,0,0,1003.5,1016.9
2022-06-27T04:18:00+09:00,1.6,��,3.1,��,24.7,93.1,0,0,0,0,0,0,1003.5,1016.9
2022-06-27T04:19:00+09:00,1.5,��,3.1,��,24.7,93.1,0,0,0,0,0,0,1003.5,1016.9
2022-06-27T04:20:00+09:00,1.6,��,3.4,��,24.7,93.2,0,0,0,0,0,0,1003.5,1016.9
2022-06-27T04:21:00+09:00,1.8,��,3.4,��,24.7,93.3,0,0,0,0,0,0,1003.5,1016.9
2022-06-27T04:22:00+09:00,1.9,��,3.4,��,24.7,93.3,0,0,0,0,0,0,1003.5,1016.9
2022-06-27T04:23:00+09:00,1.9,��,3.9,�쐼,24.7,93.3,0,0,0,0,0,0,1003.5,1016.9
2022-06-27T04:24:00+09:00,2.1,��쐼,3.9,�쐼,24.7,93.3,0,0,0,0,0,0,1003.5,1016.9
2022-06-27T04:25:00+09:00,2.2,��쐼,3.9,�쐼,24.7,93.2,0,0,0,0,0,0,1003.5,1016.9
2022-06-27T04:26:00+09:00,2.3,��쐼,3.9,�쐼,24.7,93.3,0,0,0,0,0,0,1003.5,1016.9
2022-06-27T04:27:00+09:00,2.4,��쐼,3.9,�쐼,24.8,93.3,0,0,0,0,0,0,1003.5,1016.9
2022-06-27T04:28:00+09:00,2.5,��쐼,3.9,�쐼,24.7,93.2,0,0,0,0,0,0,1003.6,1017
2022-06-27T04:29:00+09:00,2.5,��쐼,3.9,�쐼,24.7,93.1,0,0,0,0,0,0,1003.6,1017
2022-06-27T04:30:00+09:00,2.5,��쐼,3.9,�쐼,24.8,93.1,0,0,0,0,0,0,1003.6,1017
2022-06-27T04:31:00+09:00,2.5,��쐼,3.9,�쐼,24.8,93.1,0,0,0,0,0,0,1003.6,1017
2022-06-27T04:32:00+09:00,2.5,��쐼,3.9,�쐼,24.8,93,0,0,0,0,0,0,1003.5,1016.9
2022-06-27T04:33:00+09:00,2.4,��쐼,3.7,��쐼,24.8,92.9,0,0,0,0,0,0,1003.6,1017
2022-06-27T04:34:00+09:00,2.4,��쐼,4,��,24.8,92.8,0,0,0,0,0,0,1003.6,1017
2022-06-27T04:35:00+09:00,2.5,��쐼,4,��,24.8,92.7,0,0,0,0,0,0,1003.6,1017
2022-06-27T04:36:00+09:00,2.6,��쐼,4,��,24.8,92.6,0,0,0,0,0,0,1003.6,1017
2022-06-27T04:37:00+09:00,2.6,��쐼,4,��,24.8,92.6,0,0,0,0,0,0,1003.6,1017
2022-06-27T04:38:00+09:00,2.5,��쐼,4,��,24.8,92.6,0,0,0,0,0,0,1003.6,1017
2022-06-27T04:39:00+09:00,2.6,��쐼,4,��,24.8,92.4,0,0,0,0,0,0,1003.5,1016.9
2022-06-27T04:40:00+09:00,2.6,��쐼,4,��,24.8,92.5,0,0,0,0,0,0,1003.6,1017
2022-06-27T04:41:00+09:00,2.7,��쐼,4.3,��,24.8,92.5,0,0,0,0,0,0,1003.5,1016.9
2022-06-27T04:42:00+09:00,2.7,��쐼,4.3,��,24.8,92.5,0,0,0,0,0,0,1003.6,1017
2022-06-27T04:43:00+09:00,2.8,��쐼,4.3,��,24.8,92.5,0,0,0,0,0,0,1003.6,1017
2022-06-27T04:44:00+09:00,2.8,��쐼,4.3,��,24.8,92.6,0,0,0,0,0,0,1003.6,1017
2022-06-27T04:45:00+09:00,2.8,��쐼,4.3,��,24.8,92.7,0,0,0,0,0,0,1003.6,1017
2022-06-27T04:46:00+09:00,2.9,��쐼,4.5,��쐼,24.8,92.8,0,0,0,0,0,0,1003.6,1017
2022-06-27T04:47:00+09:00,2.9,��쐼,4.5,��쐼,24.8,92.7,0,0,0,0,0,0,1003.6,1017
2022-06-27T04:48:00+09:00,2.9,��쐼,4.5,��쐼,24.8,92.7,0,0,0,0,0,0,1003.6,1017
2022-06-27T04:49:00+09:00,2.8,��쐼,4.5,��쐼,24.8,92.7,0,0,0,0,0,0,1003.6,1017
2022-06-27T04:50:00+09:00,2.9,��쐼,4.5,��쐼,24.8,92.7,0,0,0,0,0,0,1003.6,1017
2022-06-27T04:51:00+09:00,2.8,��쐼,4.5,��쐼,24.8,92.8,0,0,0,0,0,0,1003.6,1017
2022-06-27T04:52:00+09:00,2.8,��쐼,4.5,��쐼,24.8,92.8,0,0,0,0,0,0,1003.6,1017
2022-06-27T04:53:00+09:00,2.8,��쐼,4.5,��쐼,24.8,92.8,0,0,0,0,0,0,1003.6,1017
2022-06-27T04:54:00+09:00,2.8,��쐼,4.5,��쐼,24.8,92.9,0,0,0,0,0,0,1003.6,1017
2022-06-27T04:55:00+09:00,2.8,��쐼,4.5,��쐼,24.8,93,0,0,0,0,0,0,1003.6,1017
2022-06-27T04:56:00+09:00,2.7,��쐼,4.4,��,24.8,93.1,0,0,0,0,0,0,1003.6,1017
2022-06-27T04:57:00+09:00,2.8,��쐼,4.4,��,24.8,92.9,0,0,0,0,0,0,1003.5,1016.9
2022-06-27T04:58:00+09:00,2.8,��쐼,4.4,��,24.8,92.9,0,0,0,0,0,0,1003.5,1016.9
2022-06-27T04:59:00+09:00,2.8,��,4.4,��,24.8,93.1,0,0,0,0,0,0,1003.5,1016.9
2022-06-27T05:00:00+09:00,2.7,��,4.4,��,24.8,93.1,0,0,0,0,0,0,1003.4,1016.8
2022-06-27T05:01:00+09:00,2.7,��,4.4,��,24.8,93.1,0,0,0,0,0,0,1003.4,1016.8
2022-06-27T05:02:00+09:00,2.7,��,5.2,��쐼,24.8,93.2,0,0,0,0,0,0,1003.4,1016.8
2022-06-27T05:03:00+09:00,2.7,��,5.2,��쐼,24.8,93.2,0,0,0,0,0,0,1003.4,1016.8
2022-06-27T05:04:00+09:00,2.7,��,5.2,��쐼,24.8,93.2,0,0,0,0,0,0,1003.4,1016.8
2022-06-27T05:05:00+09:00,2.8,��,5.2,��쐼,24.8,93.1,0,0,0,0,0,0,1003.5,1016.9
2022-06-27T05:06:00+09:00,2.8,��,5.2,��쐼,24.8,93,0,0,0,0,0,0,1003.5,1016.9
2022-06-27T05:07:00+09:00,2.9,��,5.2,��쐼,24.8,92.9,0,0,0,0,0,0,1003.5,1016.9
2022-06-27T05:08:00+09:00,2.9,��,5.2,��쐼,24.8,93,0,0,0,0,0,0,1003.6,1017
2022-06-27T05:09:00+09:00,3,��,5.2,��쐼,24.8,93,0,0,0,0,0.01,0,1003.6,1017
2022-06-27T05:10:00+09:00,3.1,��,5.2,��쐼,24.8,93,0,0,0,0,0.01,0,1003.6,1017
2022-06-27T05:11:00+09:00,3.2,��,5.3,��쐼,24.8,93,0,0,0,0,0.01,0,1003.7,1017.1
2022-06-27T05:12:00+09:00,3.4,��쐼,5.9,��쐼,24.8,92.9,0,0,0,0,0.01,0,1003.7,1017.1